Saint Francisville, IL

5:24 AM CDT on July 30, 2016 (GMT -0500)
Mount Carmel Municipal

Weather History for KAJG - May, 2014

Change the Weather History Date:

Wednesday, May 7, 2014

  Actual Average (KLWV) Record (KLWV)
Temperature  
Mean Temperature 76 °F 63 °F  
Max Temperature 87 °F 74 °F 87 °F (2004)
Min Temperature 64 °F 53 °F 37 °F (1992)
Degree Days  
Heating Degree Days 0 4  
Month to date heating degree days 30  
Since 1 July heating degree days 4621  
Cooling Degree Days 10 2  
Month to date cooling degree days 12  
Year to date cooling degree days 38  
Growing Degree Days 26 (Base 50)    
Moisture  
Dew Point 55 °F    
Average Humidity 49    
Maximum Humidity 73    
Minimum Humidity 31    
Precipitation  
Precipitation 0.00 in 0.21 in 2.71 in (2008)
Month to date precipitation 1.43  
Year to date precipitation 13.41  
Sea Level Pressure  
Sea Level Pressure 29.88 in    
Wind  
Wind Speed 11 mph (South)    
Max Wind Speed 24 mph    
Max Gust Speed 31 mph    
Visibility 10 miles    
Events      
T = Trace of Precipitation, MM = Missing Value Source: NWS Daily Summary

Daily Weather History Graph

Daily Weather History Graph

Search for Another Location

Airport or City:

Trip Planner

Search our weather history database for the weather conditions in past years. The results will help you decide how hot, cold, wet, or windy it might be!

Date:

Astronomy

May. 07, 2014 Rise Set
Actual Time 5:46 AM CDT 7:48 PM CDT
Civil Twilight 5:17 AM CDT 8:17 PM CDT
Nautical Twilight 4:42 AM CDT 8:53 PM CDT
Astronomical Twilight 4:03 AM CDT 9:32 PM CDT
Moon 12:58 PM CDT (5/7) 1:40 AM CDT (5/7)
Length of Visible Light 15h 00m
Length of Day
14h 01m
First Quarter, 55% of the Moon is Illuminated
May 7
First Quarter
May 14
Full
May 21
Last Quarter
May 28
New
Jun 5
First Quarter

Hourly Weather History & Observations

Time (CDT) Temp. Heat Index Dew Point Humidity Pressure Visibility Wind Dir Wind Speed Gust Speed Precip Events Conditions
12:15 AM 68.0 °F - 55.4 °F 64% 29.85 in 10.0 mi SSE 4.6 mph - N/A   Clear
12:35 AM 68.0 °F - 53.6 °F 60% 29.85 in 10.0 mi SSE 6.9 mph - N/A   Clear
1:15 AM 69.8 °F - 51.8 °F 53% 29.84 in 10.0 mi SSE 8.1 mph - N/A   Clear
1:35 AM 69.8 °F - 51.8 °F 53% 29.84 in 10.0 mi South 6.9 mph - N/A   Clear
1:55 AM 68.0 °F - 51.8 °F 56% 29.84 in 10.0 mi South 6.9 mph - N/A   Clear
2:15 AM 68.0 °F - 51.8 °F 56% 29.84 in 10.0 mi South 6.9 mph - N/A   Clear
2:35 AM 68.0 °F - 51.8 °F 56% 29.84 in 10.0 mi South 6.9 mph - N/A   Clear
2:55 AM 68.0 °F - 53.6 °F 60% 29.84 in 10.0 mi South 6.9 mph - N/A   Clear
3:15 AM 69.8 °F - 53.6 °F 56% 29.85 in 10.0 mi SSW 10.4 mph - N/A   Clear
3:35 AM 69.8 °F - 53.6 °F 56% 29.85 in 10.0 mi South 9.2 mph - N/A   Clear
3:55 AM 69.8 °F - 53.6 °F 56% 29.86 in 10.0 mi South 11.5 mph - N/A   Clear
4:15 AM 69.8 °F - 53.6 °F 56% 29.85 in 10.0 mi South 11.5 mph 17.3 mph N/A   Clear
4:35 AM 69.8 °F - 53.6 °F 56% 29.85 in 10.0 mi South 13.8 mph - N/A   Clear
4:55 AM 68.0 °F - 53.6 °F 60% 29.85 in 10.0 mi South 10.4 mph - N/A   Clear
5:15 AM 68.0 °F - 53.6 °F 60% 29.86 in 10.0 mi South 8.1 mph - N/A   Clear
5:35 AM 66.2 °F - 53.6 °F 64% 29.86 in 10.0 mi SSE 10.4 mph - N/A   Clear
5:55 AM 66.2 °F - 53.6 °F 64% 29.88 in 10.0 mi South 5.8 mph - N/A   Clear
6:15 AM 64.4 °F - 53.6 °F 68% 29.89 in 10.0 mi South 5.8 mph - N/A   Clear
6:35 AM 64.4 °F - 55.4 °F 73% 29.89 in 10.0 mi South 5.8 mph - N/A   Clear
6:55 AM 68.0 °F - 55.4 °F 64% 29.89 in 10.0 mi South 8.1 mph - N/A   Clear
7:15 AM 68.0 °F - 55.4 °F 64% 29.89 in 10.0 mi South 8.1 mph - N/A   Clear
7:35 AM 69.8 °F - 55.4 °F 60% 29.90 in 10.0 mi South 10.4 mph - N/A   Clear
7:55 AM 71.6 °F - 55.4 °F 57% 29.90 in 10.0 mi SSW 15.0 mph 18.4 mph N/A   Clear
8:15 AM 71.6 °F - 55.4 °F 57% 29.90 in 10.0 mi SSW 20.7 mph - N/A   Clear
8:35 AM 73.4 °F - 57.2 °F 57% 29.91 in 10.0 mi SSW 16.1 mph - N/A   Clear
8:55 AM 73.4 °F - 57.2 °F 57% 29.91 in 10.0 mi SSW 16.1 mph 23.0 mph N/A   Clear
9:15 AM 77.0 °F - 59.0 °F 54% 29.91 in 10.0 mi SSW 17.3 mph 25.3 mph N/A   Clear
9:35 AM 77.0 °F - 59.0 °F 54% 29.90 in 10.0 mi SSW 18.4 mph 25.3 mph N/A   Clear
9:55 AM 77.0 °F - 59.0 °F 54% 29.90 in 10.0 mi SSW 18.4 mph 23.0 mph N/A   Clear
10:15 AM 78.8 °F - 59.0 °F 51% 29.90 in 10.0 mi SSW 17.3 mph 23.0 mph N/A   Clear
10:35 AM 78.8 °F - 59.0 °F 51% 29.89 in 10.0 mi SSW 18.4 mph 23.0 mph N/A   Clear
10:55 AM 80.6 °F 81.1 °F 59.0 °F 48% 29.90 in 10.0 mi SSW 19.6 mph 26.5 mph N/A   Clear
11:15 AM 80.6 °F 80.8 °F 57.2 °F 45% 29.90 in 10.0 mi SSW 18.4 mph 25.3 mph N/A   Clear
11:35 AM 82.4 °F 81.7 °F 55.4 °F 39% 29.90 in 10.0 mi SSW 17.3 mph 26.5 mph N/A   Clear
11:55 AM 82.4 °F 81.7 °F 55.4 °F 39% 29.90 in 10.0 mi SSW 18.4 mph 24.2 mph N/A   Clear
12:15 PM 82.4 °F 81.7 °F 55.4 °F 39% 29.89 in 10.0 mi South 16.1 mph - N/A   Clear
12:35 PM 82.4 °F 81.4 °F 53.6 °F 37% 29.89 in 10.0 mi SSW 18.4 mph 24.2 mph N/A   Clear
12:55 PM 84.2 °F 83.0 °F 55.4 °F 37% 29.89 in 10.0 mi South 19.6 mph 26.5 mph N/A   Clear
1:15 PM 84.2 °F 82.8 °F 53.6 °F 35% 29.90 in 10.0 mi SW 12.7 mph 18.4 mph N/A   Clear
1:35 PM 86.0 °F - 51.8 °F 31% 29.89 in 10.0 mi South 18.4 mph 23.0 mph N/A   Clear
1:55 PM 86.0 °F - 51.8 °F 31% 29.89 in 10.0 mi South 16.1 mph 23.0 mph N/A   Clear
2:15 PM 86.0 °F - 51.8 °F 31% 29.88 in 10.0 mi SSW 19.6 mph 26.5 mph N/A   Clear
2:35 PM 86.0 °F 84.2 °F 53.6 °F 33% 29.87 in 10.0 mi South 20.7 mph - N/A   Clear
2:55 PM 84.2 °F 82.8 °F 53.6 °F 35% 29.87 in 10.0 mi South 18.4 mph 27.6 mph N/A   Clear
3:15 PM 86.0 °F 84.5 °F 55.4 °F 35% 29.87 in 10.0 mi South 19.6 mph 25.3 mph N/A   Clear
3:35 PM 86.0 °F 84.2 °F 53.6 °F 33% 29.87 in 10.0 mi SW 24.2 mph 31.1 mph N/A   Clear
3:55 PM 87.8 °F 85.7 °F 53.6 °F 31% 29.88 in 10.0 mi SSW 17.3 mph 26.5 mph N/A   Clear
4:15 PM 86.0 °F 84.2 °F 53.6 °F 33% 29.86 in 10.0 mi South 16.1 mph 23.0 mph N/A   Clear
4:35 PM 86.0 °F 84.5 °F 55.4 °F 35% 29.85 in 10.0 mi South 17.3 mph 25.3 mph N/A   Clear
4:55 PM 86.0 °F 84.5 °F 55.4 °F 35% 29.84 in 10.0 mi South 12.7 mph 23.0 mph N/A   Clear
5:15 PM 84.2 °F 83.0 °F 55.4 °F 37% 29.85 in 10.0 mi South 18.4 mph 28.8 mph N/A   Clear
5:35 PM 86.0 °F 84.2 °F 53.6 °F 33% 29.85 in 10.0 mi SSW 20.7 mph 29.9 mph N/A   Clear
5:55 PM 84.2 °F 82.8 °F 53.6 °F 35% 29.87 in 10.0 mi SSW 15.0 mph 25.3 mph N/A   Clear
6:15 PM 84.2 °F - 51.8 °F 33% 29.87 in 10.0 mi SSW 20.7 mph 25.3 mph N/A   Clear
6:35 PM 84.2 °F - 51.8 °F 33% 29.87 in 10.0 mi South 20.7 mph 26.5 mph N/A   Clear
6:55 PM 82.4 °F 81.4 °F 53.6 °F 37% 29.87 in 10.0 mi South 16.1 mph 20.7 mph N/A   Clear
7:15 PM 82.4 °F 81.4 °F 53.6 °F 37% 29.87 in 10.0 mi South 13.8 mph 17.3 mph N/A   Clear
7:35 PM 80.6 °F 80.3 °F 53.6 °F 39% 29.88 in 10.0 mi SSW 11.5 mph - N/A   Clear
7:55 PM 78.8 °F - 53.6 °F 42% 29.89 in 10.0 mi South 9.2 mph - N/A   Clear
8:15 PM 77.0 °F - 55.4 °F 47% 29.89 in 10.0 mi South 9.2 mph - N/A   Clear
8:35 PM 75.2 °F - 55.4 °F 50% 29.90 in 10.0 mi South 9.2 mph - N/A   Clear
8:55 PM 75.2 °F - 55.4 °F 50% 29.90 in 10.0 mi South 10.4 mph - N/A   Clear
9:15 PM 73.4 °F - 57.2 °F 57% 29.90 in 10.0 mi South 10.4 mph - N/A   Clear
9:35 PM 75.2 °F - 55.4 °F 50% 29.91 in 10.0 mi SSE 8.1 mph - N/A   Clear
9:55 PM 73.4 °F - 57.2 °F 57% 29.91 in 10.0 mi South 9.2 mph - N/A   Clear
10:15 PM 73.4 °F - 55.4 °F 53% 29.91 in 10.0 mi South 8.1 mph - N/A   Clear
10:35 PM 71.6 °F - 55.4 °F 57% 29.92 in 10.0 mi South 8.1 mph - N/A   Clear
10:55 PM 73.4 °F - 57.2 °F 57% 29.92 in 10.0 mi South 9.2 mph - N/A   Clear
11:15 PM 73.4 °F - 59.0 °F 61% 29.91 in 10.0 mi South 11.5 mph - N/A   Clear
11:35 PM 73.4 °F - 57.2 °F 57% 29.91 in 10.0 mi SSW 16.1 mph 23.0 mph N/A   Clear
11:55 PM 75.2 °F - 57.2 °F 53% 29.91 in 10.0 mi SSW 12.7 mph - N/A   Clear